Terminal Aerodrome Forecast
Issued by NWS Bismarck, ND

Home | Current Version | Previous Version | Text Only | Print | Product List | Glossary Off
Versions: 1 2 3 4 5 6 7 8 9 10 11 12 13 14 15 16 17 18 19 20 21

000
FTUS43 KBIS 261100 RRA
TAFISN
TAF
KISN 261143Z 2612/2712 31007KT P6SM OVC006
      TEMPO 2615/2618 SCT011 BKN035
     FM261800 34008KT P6SM SCT035
     FM262300 34007KT P6SM BKN050
     FM270300 35007KT 4SM -RA BR BKN035 OVC050
     FM270600 34007KT 2SM -RA BR BKN020 OVC035=

USA.gov is the U.S. government's official web portal to all federal, state and local government web resources and services.